Location: Northcutt
(34.7304°N, 84.4305°W)
Time: 08:39:58
(UTC+00:00)

S-56A Canister/Altair - Pass Details

Date: 09 October 2022
Orbit: 638 x 2494 km, 38.9° (Epoch: 08 December)

Event Time Altitude Azimuth Distance (km) Brightness Sun altitude
Rises 08:01:38 0° 281° (W) 5,776 - -44.1°
Reaches altitude 10° 08:05:50 10° 283° (WNW) 4,547 - -43.4°
Maximum altitude 08:17:44 73° 8° (N) 1,587 - -41.2°
Exits shadow 08:19:18 62° 63° (ENE) 1,606 9.1 -40.9°
Drops below altitude 10° 08:25:26 10° 93° (E) 3,041 11.1 -39.7°
Sets 08:27:44 0° 95° (E) 3,801 11.8 -39.3°
